Regional Weather Roundup
Issued by NWS

Home | Current Version | Previous Version | Text Only | Print | Product List | Glossary On
Versions: 1 2 3 4 5 6 7 8 9 10 11 12 13 14 15 16 17 18 19 20 21 22 23 24 25 26 27 28 29 30 31 32 33 34 35 36 37 38 39 40 41 42 43 44 45 46 47 48 49 50
000
ASUS43 KMPX 191201
RWRMN
WEATHER ROUNDUP FOR MINNESOTA
NATIONAL WEATHER SERVICE TWIN CITIES/CHANHASSEN MN
600 AM CST SUN NOV 19 2017


NOTE: "FAIR" INDICATES FEW OR NO CLOUDS BELOW 12,000 FEET WITH NO
SIGNIFICANT WEATHER AND/OR OBSTRUCTIONS TO VISIBILITY. N/A MEANS
CURRENT SKY AND/OR WEATHER CONDITIONS ARE NOT AVAILABLE.

MNZ060>063-068>070-191300-
   Twin Cities Metro

CITY           SKY/WX    TMP DP  RH WIND       PRES   REMARKS
TWIN CITIES    CLEAR     19  11  70 W5        30.07S WCI  12
6HR MIN TEMP:  18; 6HR MAX TEMP:  21;

ST PAUL        CLEAR     18  10  71 W8        30.08S WCI   8
CRYSTAL        CLEAR     17   8  67 W5        30.05S WCI  10
BLAINE         CLEAR     18  12  79 SW5       30.05S WCI  11
LAKEVILLE      CLEAR     14  10  85 SW3       30.06F
EDEN PRAIRIE   CLEAR     15  10  80 SW6       30.06S WCI   6
6HR MIN TEMP:  15; 6HR MAX TEMP:  22;

SOUTH ST PAUL  CLEAR     19  10  68 W8        30.07S WCI   9
LAKE ELMO      FAIR      18  12  79 CALM      30.05F
$$
MNZ001>005-007-008-013>017-022>024-027-028-191300-
   Northwest Minnesota

CITY           SKY/WX    TMP DP  RH WIND       PRES   REMARKS
BEMIDJI        CLOUDY    10   6  85 SW3       29.93F
HALLOCK        CLOUDY    12   9  85 S6        29.93F WCI   3
ROSEAU         CLOUDY    12   9  85 SW5       29.92F WCI   4
WARROAD        CLOUDY     9   5  85 SW6       29.91F WCI  -1
CROOKSTON      CLOUDY    14  10  85 S6        29.96F WCI   5
FOSSTON        CLOUDY    10   9  92 SW5       29.95F WCI   2
DETROIT LAKES  CLOUDY    16  14  93 SW5       29.97F WCI   9
MOORHEAD       PTCLDY    16  10  79 CALM      29.99F
PARK RAPIDS    CLOUDY    10   6  84 SW5       29.95F WCI   2
MAHNOMEN       FAIR      11   8  86 S6        29.97F WCI   2
$$
MNZ006-009>011-018-025>026-191300-
   North Central Minnesota

CITY           SKY/WX    TMP DP  RH WIND       PRES   REMARKS
BAUDETTE       CLOUDY     5   1  83 SW5       29.92S WCI  -4
FLAG ISLAND    CLEAR      7   1  78 W7        29.90S WCI  -5
INTL FALLS     CLEAR      3  -1  83 SW5       29.91F WCI  -6
6HR MIN TEMP:   2; 6HR MAX TEMP:  13; 6HR PCP: TRACE;

WASKISH        PTCLDY    12   9  85 W8        29.93F WCI   1
BIG FORK       CLEAR      3   0  85 CALM      29.93S
LONGVILLE      CLOUDY    10   7  85 W5        29.96S WCI   2
GRAND RAPIDS   CLOUDY    10   7  87 W5        29.96S WCI   2
CRANE LAKE     CLEAR      3   1  92 CALM      29.94F
ORR            CLEAR      3   0  85 W3        29.89F
COOK           CLEAR      3   1  92 CALM      29.92F
WALKER         FAIR      10   6  82 SW5       29.95F WCI   2
$$
MNZ012-019>021-037-191300-
   Northeast Minnesota

CITY           SKY/WX    TMP DP  RH WIND       PRES   REMARKS
DULUTH         CLEAR      9   6  88 W7        29.93S WCI  -2
6HR MIN TEMP:   9; 6HR MAX TEMP:  15; 6HR PCP: TRACE;

ELY            CLEAR      7   5  92 W6        29.90R WCI  -3
HIBBING        CLEAR      4   1  88 SW5       29.93F WCI  -5
EVELETH        CLEAR      5   1  85 CALM      29.93F
DULUTH HARBOR  PTCLDY    16  10  79 SW7       30.01F WCI   6
TWO HARBORS    CLEAR     12   7  79 W6        29.93S WCI   3
SILVER BAY     CLEAR     10   7  85 CALM      29.91R
GRAND MARAIS     N/A     20  12  71 W9        29.91S WCI   9
G MARAIS ARPRT LGT SNOW  10   5  79 CALM      29.82S
$$
MNZ029>031-032-039>041-046>048-054>057-064-191300-
   West Central Minnesota

CITY           SKY/WX    TMP DP  RH WIND       PRES   REMARKS
FERGUS FALLS   CLOUDY    12   9  85 S6        30.03F WCI   3
WHEATON        CLEAR     19  14  79 S7        30.03F WCI  10
MORRIS         CLEAR     16  10  79 S7        30.01F WCI   6
ALEXANDRIA     CLEAR     15  12  88 SW5       30.01F WCI   8
ELBOW LAKE     FAIR      14  11  89 E5        30.01F WCI   7
WADENA         CLOUDY    12   9  85 SW3       29.99R
GLENWOOD       CLEAR     12  10  92 S6        30.02F WCI   3
APPLETON         N/A     18  12  79 CALM      30.03F
BENSON         CLOUDY    12   9  85 S5        30.05F WCI   4
ORTONVILLE     CLOUDY    16  12  86 MISG      30.02F
MADISON        CLOUDY    21  16  79 SW6       30.04F WCI  14
WILLMAR        FAIR      16  12  86 SW6       30.06S WCI   7
$$
MNZ033>034-036-042>043-049>051-058-059-191300-
   Central Minnesota

CITY           SKY/WX    TMP DP  RH WIND       PRES   REMARKS
ST CLOUD       CLEAR     14  10  84 W6        30.04S WCI   5
6HR MIN TEMP:  13; 6HR MAX TEMP:  17;

SAUK CENTRE    FAIR      14  11  85 CALM      30.03F
PAYNESVILLE    CLEAR     12  11  95 W5        30.04F WCI   4
AITKIN         CLEAR      9   7  92 W3        29.98R
PINE RIVER     CLOUDY    10   7  85 CALM      30.01S
BRAINERD       CLEAR     13   8  81 SW7       30.00R WCI   3
STAPLES        CLEAR     10   9  92 SW5       29.99F WCI   2
LONG PRAIRIE   FAIR      12  10  92 S6        30.02S WCI   3
LITTLE FALLS   CLEAR     14   9  79 CALM      30.02F
LITCHFIELD     CLEAR     16  14  93 CALM      30.06R
BUFFALO        CLEAR     17  12  81 SW5       30.06F WCI  10
MAPLE LAKE     CLEAR     16  13  89 SW3       30.05F
HUTCHINSON     PTCLDY    15  12  89 CALM      30.07S
$$
MNZ037-044-045-052-053-191300-
   East Central Minnesota

CITY           SKY/WX    TMP DP  RH WIND       PRES   REMARKS
PRINCETON      CLEAR     16  10  79 CALM      30.03F
MORA           CLEAR     14   9  79 W5        30.03F WCI   6
CAMBRIDGE      CLEAR     16   9  73 CALM      30.05R
RUSH CITY      CLEAR     15  10  81 W3        30.04S
MOOSE LAKE     CLEAR      9   5  85 CALM      29.98S
HINCKLEY       FAIR      14  12  92 SW5       30.01S WCI   6
CLOQUET        CLEAR     10   5  79 W6        29.96R WCI   1
MCGREGOR       CLEAR     12   9  85 SW3       29.98S
$$
MNZ071>073-080-081-089-090-097-098-191300-
   Southwest Minnesota

CITY           SKY/WX    TMP DP  RH WIND       PRES   REMARKS
MONTEVIDEO     PTCLDY    18  12  79 SW5       30.05F WCI  11
GRANITE FALLS  CLOUDY    16  13  88 S7        30.07F WCI   6
CANBY          CLOUDY    28  19  68 SW10      30.05F WCI  19
MARSHALL       CLEAR     23  17  78 SW8       30.06F WCI  14
REDWOOD FALLS  CLEAR     20  13  74 W7        30.08S WCI  11
OLIVIA         CLEAR     16  12  86 SW6       30.06S WCI   7
PIPESTONE      CLOUDY    14  10  85 SW5       30.07F WCI   6
WINDOM         CLEAR     18   7  62 SW3       30.09S
WORTHINGTON    CLEAR     19  14  81 SW8       30.10R WCI   9
JACKSON        CLEAR     19  14  79 CALM      30.10R
SLAYTON        CLEAR     20  15  82 SW8       30.09R WCI  10
$$
MNZ065>067-074>077-082>085-091>093-191300-
   South Central Minnesota

CITY           SKY/WX    TMP DP  RH WIND       PRES   REMARKS
MANKATO        CLEAR     16  11  80 W6        30.09S WCI   7
NEW ULM        CLEAR     12   9  85 CALM      30.09S
ST JAMES       CLEAR     16  10  79 SW9       30.11R WCI   4
FAIRMONT       CLEAR     18  13  80 W8        30.11R WCI   8
GLENCOE        CLEAR     16  13  86 SW3       30.07S
FARIBAULT      CLEAR     16  10  79 W5        30.07S WCI   9
OWATONNA       CLEAR     14  10  85 CALM      30.06S
WASECA         CLEAR     14  10  85 SW3       30.09S
ALBERT LEA     CLEAR     16  10  79 W5        30.08R WCI   9
$$
MNZ078>079-086>088-094>096-191300-
   Southeast Minnesota

CITY           SKY/WX    TMP DP  RH WIND       PRES   REMARKS
ROCHESTER      CLEAR     16  11  80 NW8       30.04S WCI   5
6HR MIN TEMP:  16; 6HR MAX TEMP:  20;

RED WING       PTCLDY    18   9  68 CALM      30.06S
STANTON        CLEAR     18  12  78 W6        30.06S WCI   9
DODGE CENTER   PTCLDY    16  10  79 W9        30.04F WCI   4
WINONA         CLEAR     21  12  68 NW6       30.07S WCI  14
AUSTIN         CLEAR     16  10  79 W8        30.07S WCI   5
PRESTON        CLEAR     16  11  81 NW10      30.04F WCI   3
$$
ABBREVIATIONS USED IN REMARKS
   TC - TEMPERATURES IN CELSIUS
  WCI - WIND CHILL INDEX
   HX - HEAT INDEX
  VSB - VISIBILITY
$$




USA.gov is the U.S. government's official web portal to all federal, state and local government web resources and services.